Regional Weather Roundup
Issued by NWS

Home | Current Version | Previous Version | Graphics & Text | Print | Product List | Glossary On
Versions: 1 2 3 4 5 6 7 8 9 10 11 12 13 14 15 16 17 18 19 20 21 22 23 24 25 26 27 28 29 30 31 32 33 34 35 36 37 38 39 40 41 42 43 44 45 46 47 48 49 50
000
ASUS43 KOAX 271010
RWRNE

WEATHER ROUNDUP FOR NEBRASKA
NATIONAL WEATHER SERVICE OMAHA NE
400 AM CST SAT DEC 27 2014

NOTES: SATELLITE DATA IS BEING USED TO AUGMENT CLOUD COVER ABOVE
       12000 FEET.
       "FAIR" INDICATES FEW OR NO CLOUDS BELOW 12,000 FEET WITH NO
       SIGNIFICANT WEATHER AND/OR OBSTRUCTIONS TO VISIBILITY.

  * THESE STATIONS DO NOT REPORT WEATHER SUCH AS RAIN...SNOW OR FOG.

NEZ001>004-019>022-054>056-271100-
NEBRASKA PANHANDLE

CITY           SKY/WX    TMP DP  RH WIND       PRES   REMARKS
SCOTTSBLUFF    PTCLDY     2   0  91 NW5       30.14R WCI  -8
ALLIANCE       CLOUDY    17  11  77 NW9       30.11R WCI   6
CHADRON        CLEAR      9   6  88 W6        30.15S WCI  -1
KIMBALL        CLEAR      1  -2  85 W8        30.07R WCI -12
SIDNEY         PTCLDY     4   0  83 NW10      30.11S WCI -11
$$

NEZ057>060-069>072-079>082-271100-
SOUTHWEST NEBRASKA

CITY           SKY/WX    TMP DP  RH WIND       PRES   REMARKS
NORTH PLATTE   MOCLDY     2  -1  88 NW5       30.18R FOG     WCI  -8
IMPERIAL       CLEAR     10   6  84 W9        30.15S WCI  -3
LEXINGTON      CLEAR     11   8  89 NW10      30.18R WCI  -2
MCCOOK         CLEAR      9   6  88 NW12      30.19R WCI  -6
OGALLALA       PTCLDY    10   8  92 W6        30.15R WCI   0
$$

NEZ005>010-023>029-035>040-094-271100-
NORTH CENTRAL NEBRASKA

CITY           SKY/WX    TMP DP  RH WIND       PRES   REMARKS
VALENTINE      CLOUDY    15  10  80 W8        30.15S WCI   4
AINSWORTH      MOCLDY    13  11  90 W7        30.14S WCI   3
BROKEN BOW     PTCLDY    14  10  84 W9        30.16R WCI   2
O`NEILL        LGT SNOW  18  16  93 NW10      30.16S WCI   6
ORD            PTCLDY    14  12  92 NW7       30.16S WCI   4
THEDFORD       FLURRIES  15  13  90 W8        30.14F WCI   4
$$

NEZ041-046>049-061>064-073>077-083>087-271100-
SOUTH CENTRAL NEBRASKA

CITY           SKY/WX    TMP DP  RH WIND       PRES   REMARKS
GRAND ISLAND   CLEAR     12  10  92 NW9       30.18R WCI   0
AURORA         CLEAR     15  13  92 W7        30.18R WCI   5
HASTINGS       CLEAR     12   9  87 W8        30.18R WCI   0
HEBRON         CLOUDY    22  18  82 NW15      30.17F WCI   9
HOLDREGE       CLEAR     11   8  89 W6        30.19R WCI   1
KEARNEY *      PTCLDY     9   7  92 W8        30.18R WCI  -4
YORK           CLEAR     18  16  93 NW15      30.17R WCI   3
$$

NEZ011>018-030>034-042>045-271100-
NORTHEAST NEBRASKA

CITY           SKY/WX    TMP DP  RH WIND       PRES   REMARKS
NORFOLK        MOCLDY    19  15  84 NW13      30.13S WCI   6
ALBION         FLURRIES  17  13  84 NW10      30.15S WCI   4
BLAIR          LGT SNOW  25  22  88 W13G18    30.10R WCI  14
COLUMBUS *     CLEAR     19  10  68 NW14      30.15R WCI   6
FREMONT        LGT SNOW  25  22  91 NW15      30.14R WCI  12
TEKAMAH        LGT SNOW  25  21  85 NW18      30.12R FOG     WCI  11
WAYNE          LGT SNOW  21  18  87 NW16      30.13S WCI   7
$$

NEZ050>053-065>068-078-088>093-271100-
SOUTHEAST NEBRASKA

CITY           SKY/WX    TMP DP  RH WIND       PRES   REMARKS
LINCOLN        CLEAR     23  19  85 NW13      30.16R WCI  11
OMAHA EPPLEY   FLURRIES  26  23  88 NW14      30.13R WCI  14
BEATRICE       MOCLDY    23  20  88 NW13      30.15S WCI  11
FALLS CITY     CLOUDY    31  27  85 NW13      30.10R WCI  21
NEBRASKA CITY  CLOUDY    27  26  94 NW14      30.11R WCI  16
PLATTSMOUTH    CLOUDY    26  23  87 NW14      30.11R WCI  15
$$

NEZ044-045-051>053-067-271100-
OMAHA AREA

CITY           SKY/WX    TMP DP  RH WIND       PRES   REMARKS
OMAHA EPPLEY   FLURRIES  26  23  88 NW14      30.13R WCI  14
BLAIR          LGT SNOW  25  22  88 W13G18    30.10R WCI  14
FREMONT        LGT SNOW  25  22  91 NW15      30.14R WCI  12
MILLARD        FLURRIES  27  22  83 NW15      30.13R WCI  15
OFFUTT AFB     FLURRIES  27  23  86 NW14G22   30.12R WCI  15
PLATTSMOUTH    CLOUDY    26  23  87 NW14      30.11R WCI  15
WAHOO          FAIR      23  19  85 NW12      30.13R WCI  12
$$


USA.gov is the U.S. government's official web portal to all federal, state and local government web resources and services.